KINEIS-5B

Last updated on Wed Oct 22 2025 00:02:42 GMT+0000 (Coordinated Universal Time)

1 62085U 24219E 25294.59645005 .00003087 00000+0 44167-3 0 9997 2 62085 97.9833 95.3113 0001365 356.2955 3.8245 14.77338231 48760
UTC large
Height (km)
Speed (km/s)
/
Latitude / Longitude
Inclination (degrees)
Orbital Period (minutes)
Azimuth
Elevation
Range (km)
Doppler Factor

Next 0 passes for location: London (51.5072 / 0.1276)

Sorry there are no passes over London.